Weather in Ungoofaaru

Maldives     5°40′06″N   73°01′49″E
temp.,
°C
wind,
m/s
gust,
m/s
humid.,
%
clouds,
%
prec.,
mm/h
press.,
hPa
HPBL,
m
10 august, wed
wed1023:00+27wnw698494 0.3 1009734
02:00+27w6880100 0.4 1007761
05:00+27w458074 0.4 1008636
08:00+27w458194 0.1 1009566
11:00+27w4580100 0.1 1009667
14:00+27w3480100 0.0 1006563
17:00+28w458092 0.2 1007579
20:00+27wnw468398 0.0 1008640
11 august, thu
thu1123:00+27wnw478337 0.1 1009720
02:00+27wnw578345 0.6 1007700
05:00+27w458217 1.0 1008608
08:00+27w4582100 0.5 1009519
11:00+27wsw3480100 0.5 1010606
14:00+28w2378100 0.0 1008504
17:00+28w337717 0.2 1008583
20:00+27w33795 0.7 1009214
12 august, fri
fri1223:00+27wsw237944 1.1 1010381
02:00+27wsw238138 0.9 1009264
05:00+27wsw33787 1.3 1009410
08:00+27wsw4477100 0.1 1011472
11:00+27wsw33778 0.1 1010416
14:00+27w347660 0.1 1008562
17:00+28w347584 0.1 1008658
20:00+27wnw3479100 0.0 1010648
13 august, sat
sat1323:00+27wnw228167 0.6 1011212
02:00+26wnw3382100 1.0 1009296
05:00+27w348175 1.4 1009522
08:00+27w3482100 1.1 1010368
11:00+27w447980 2.0 1010482
14:00+27w3476100 0.1 1008614
17:00+28w3475100 0.1 1008684
20:00+27w2377100 0.1 1010601
14 august, sun
sun1423:00+27nw337878 0.1 1011550
02:00+27nw447986 0.0 1008660
05:00+27wnw348046 0.4 1008548
08:00+27nw228112 0.4 1011231
11:00+27nw227744 0.6 1011574
14:00+27nw237679 0.0 1009668
17:00+27nw3375100 0.0 1009678
20:00+27nnw2377100 0.0 1010656